SJX236 VHHH-RCTP

Flight info

Callsign SJX236
Flight time 1h 11m
Altitude 39000
Route DALOL V631 ENVAR M750 EXTRA/N0469F290 M750 TONGA TONGA1A
Aircraft A359/H-SDE2E3GHIJ3J4J5LM1ORWXY/LB1D1

Departure

Time 2026-05-04 04:07
Airport Hong Kong International Airport (VHHH)

Arrival

Time 2026-05-04 05:18
Airport Taiwan Taoyuan International Airport (RCTP)
Time Latitude Longitude Altitude Speed Heading
2026-05-04 03:48 22.30948 113.91383 43 ft 0 kts 251°
2026-05-04 03:58 22.30956 113.91408 43 ft 3 kts 251°
2026-05-04 03:58 22.30963 113.91428 42 ft 3 kts 251°
2026-05-04 03:58 22.30969 113.91444 40 ft 3 kts 255°
2026-05-04 03:59 22.30972 113.91460 42 ft 3 kts 283°
2026-05-04 03:59 22.30967 113.91475 39 ft 3 kts 315°
2026-05-04 03:59 22.30953 113.91487 40 ft 3 kts 332°
2026-05-04 03:59 22.30951 113.91488 40 ft 0 kts 333°
2026-05-04 04:02 22.30971 113.91478 39 ft 6 kts 333°
2026-05-04 04:02 22.31027 113.91449 43 ft 12 kts 339°
2026-05-04 04:02 22.31119 113.91411 43 ft 17 kts 339°
2026-05-04 04:03 22.31242 113.91365 43 ft 21 kts 341°
2026-05-04 04:03 22.31336 113.91330 44 ft 18 kts 338°
2026-05-04 04:03 22.31377 113.91237 44 ft 16 kts 257°
2026-05-04 04:03 22.31335 113.91114 44 ft 19 kts 250°
2026-05-04 04:04 22.31284 113.90964 43 ft 23 kts 250°
2026-05-04 04:04 22.31229 113.90797 43 ft 24 kts 250°
2026-05-04 04:04 22.31172 113.90624 43 ft 25 kts 250°
2026-05-04 04:04 22.31114 113.90445 43 ft 22 kts 251°
2026-05-04 04:05 22.31061 113.90281 43 ft 24 kts 251°
2026-05-04 04:05 22.31005 113.90106 43 ft 22 kts 251°
2026-05-04 04:05 22.30961 113.89950 43 ft 21 kts 266°
2026-05-04 04:05 22.31049 113.89859 43 ft 19 kts 343°
2026-05-04 04:06 22.31133 113.89904 43 ft 14 kts 71°
2026-05-04 04:06 22.31189 113.90079 42 ft 52 kts 70°
2026-05-04 04:06 22.31385 113.90679 43 ft 115 kts 70°
2026-05-04 04:06 22.31713 113.91681 48 ft 167 kts 68°
2026-05-04 04:07 22.32115 113.92857 755 ft 164 kts 69°
2026-05-04 04:07 22.32494 113.94050 1414 ft 177 kts 71°
2026-05-04 04:07 22.32913 113.95388 1747 ft 197 kts 70°
2026-05-04 04:07 22.33336 113.96835 2292 ft 205 kts 76°
2026-05-04 04:08 22.33623 113.98346 2946 ft 207 kts 79°
2026-05-04 04:08 22.33874 113.99900 3482 ft 214 kts 80°
2026-05-04 04:08 22.34132 114.01521 3954 ft 224 kts 80°
2026-05-04 04:08 22.34357 114.03225 4511 ft 233 kts 86°
2026-05-04 04:09 22.34200 114.04975 5115 ft 238 kts 107°
2026-05-04 04:09 22.33454 114.06563 5791 ft 238 kts 130°
2026-05-04 04:09 22.32236 114.07771 6384 ft 243 kts 149°
2026-05-04 04:09 22.30672 114.08555 6801 ft 254 kts 168°
2026-05-04 04:10 22.28921 114.08811 7449 ft 254 kts 183°
2026-05-04 04:10 22.27113 114.08788 7967 ft 268 kts 185°
2026-05-04 04:10 22.25211 114.08734 8559 ft 278 kts 185°
2026-05-04 04:10 22.23263 114.08696 9320 ft 282 kts 185°
2026-05-04 04:11 22.21294 114.08668 10084 ft 285 kts 186°
2026-05-04 04:11 22.19269 114.08653 10565 ft 300 kts 184°
2026-05-04 04:11 22.17126 114.09055 10814 ft 330 kts 163°
2026-05-04 04:11 22.15155 114.10491 11092 ft 358 kts 137°
2026-05-04 04:12 22.13770 114.12791 11586 ft 372 kts 118°
2026-05-04 04:12 22.12668 114.15342 12187 ft 378 kts 118°
2026-05-04 04:12 22.11542 114.17914 12801 ft 382 kts 119°
2026-05-04 04:12 22.10370 114.20495 13423 ft 385 kts 120°
2026-05-04 04:13 22.09182 114.23054 14013 ft 388 kts 120°
2026-05-04 04:13 22.07825 114.25615 14527 ft 388 kts 130°
2026-05-04 04:13 22.05933 114.27649 15064 ft 382 kts 147°
2026-05-04 04:13 22.03824 114.29337 15606 ft 384 kts 149°
2026-05-04 04:14 22.01647 114.31027 16134 ft 388 kts 149°
2026-05-04 04:14 21.99455 114.32737 16663 ft 391 kts 149°
2026-05-04 04:14 21.97246 114.34467 17218 ft 394 kts 149°
2026-05-04 04:14 21.95025 114.36215 17745 ft 397 kts 149°
2026-05-04 04:15 21.92807 114.37965 18265 ft 400 kts 149°
2026-05-04 04:15 21.90549 114.39738 18729 ft 404 kts 149°
2026-05-04 04:15 21.88274 114.41529 19181 ft 408 kts 149°
2026-05-04 04:15 21.86120 114.43568 19619 ft 419 kts 137°
2026-05-04 04:16 21.84455 114.46190 20059 ft 432 kts 120°
2026-05-04 04:16 21.83423 114.49257 20536 ft 440 kts 109°
2026-05-04 04:16 21.82608 114.52454 20982 ft 444 kts 108°
2026-05-04 04:16 21.81807 114.55675 21428 ft 448 kts 108°
2026-05-04 04:17 21.80988 114.58926 21880 ft 451 kts 108°
2026-05-04 04:17 21.80154 114.62194 22324 ft 455 kts 108°
2026-05-04 04:17 21.79309 114.65483 22760 ft 458 kts 109°
2026-05-04 04:17 21.78454 114.68795 23201 ft 462 kts 109°
2026-05-04 04:18 21.77589 114.72138 23628 ft 465 kts 108°
2026-05-04 04:18 21.76719 114.75495 23991 ft 468 kts 108°
2026-05-04 04:18 21.75841 114.78877 24387 ft 471 kts 108°
2026-05-04 04:18 21.74970 114.82282 24786 ft 474 kts 107°
2026-05-04 04:19 21.74409 114.85794 25187 ft 480 kts 96°
2026-05-04 04:19 21.74231 114.89386 25613 ft 483 kts 93°
2026-05-04 04:19 21.74195 114.93014 26029 ft 486 kts 91°
2026-05-04 04:19 21.74226 114.96663 26441 ft 489 kts 90°
2026-05-04 04:20 21.74275 115.00287 26848 ft 492 kts 90°
2026-05-04 04:20 21.74317 115.04025 27261 ft 495 kts 91°
2026-05-04 04:20 21.74344 115.07695 27670 ft 498 kts 91°
2026-05-04 04:20 21.74356 115.11433 28056 ft 501 kts 91°
2026-05-04 04:21 21.74358 115.15189 28456 ft 504 kts 91°
2026-05-04 04:21 21.74354 115.18977 28852 ft 507 kts 91°
2026-05-04 04:21 21.74347 115.22785 29227 ft 511 kts 91°
2026-05-04 04:21 21.74341 115.26614 29599 ft 514 kts 91°
2026-05-04 04:22 21.74332 115.30465 29973 ft 517 kts 91°
2026-05-04 04:22 21.74321 115.34341 30298 ft 520 kts 91°
2026-05-04 04:22 21.74310 115.38236 30602 ft 522 kts 91°
2026-05-04 04:22 21.74298 115.42149 30918 ft 525 kts 91°
2026-05-04 04:23 21.74286 115.46086 31231 ft 527 kts 91°
2026-05-04 04:23 21.74273 115.50030 31531 ft 529 kts 91°
2026-05-04 04:23 21.74260 115.53992 31843 ft 531 kts 91°
2026-05-04 04:23 21.74246 115.57975 32141 ft 533 kts 91°
2026-05-04 04:24 21.74234 115.61968 32422 ft 535 kts 91°
2026-05-04 04:24 21.74220 115.65981 32706 ft 537 kts 91°
2026-05-04 04:24 21.74204 115.70001 32995 ft 539 kts 91°
2026-05-04 04:24 21.74186 115.74045 33252 ft 541 kts 91°
2026-05-04 04:25 21.74167 115.78095 33501 ft 543 kts 91°
2026-05-04 04:25 21.74148 115.82166 33746 ft 545 kts 91°
2026-05-04 04:25 21.74128 115.86248 33978 ft 547 kts 91°
2026-05-04 04:25 21.74106 115.90342 34205 ft 548 kts 91°
2026-05-04 04:26 21.74084 115.94440 34490 ft 548 kts 91°
2026-05-04 04:26 21.74061 115.98537 34778 ft 547 kts 91°
2026-05-04 04:26 21.74037 116.02628 35045 ft 547 kts 91°
2026-05-04 04:26 21.74012 116.06717 35310 ft 547 kts 91°
2026-05-04 04:27 21.73986 116.10811 35572 ft 547 kts 91°
2026-05-04 04:27 21.73959 116.14899 35859 ft 546 kts 91°
2026-05-04 04:27 21.73930 116.18985 36119 ft 546 kts 91°
2026-05-04 04:27 21.73901 116.23062 36377 ft 546 kts 91°
2026-05-04 04:28 21.73871 116.27142 36630 ft 546 kts 91°
2026-05-04 04:28 21.73840 116.31227 36885 ft 545 kts 91°
2026-05-04 04:28 21.73808 116.35309 37137 ft 545 kts 91°
2026-05-04 04:28 21.73775 116.39381 37381 ft 545 kts 91°
2026-05-04 04:29 21.73741 116.43454 37619 ft 545 kts 91°
2026-05-04 04:29 21.73706 116.47520 37871 ft 544 kts 91°
2026-05-04 04:29 21.73670 116.51587 38104 ft 543 kts 91°
2026-05-04 04:29 21.73633 116.55600 38322 ft 543 kts 91°
2026-05-04 04:30 21.73595 116.59712 38545 ft 543 kts 91°
2026-05-04 04:30 21.73556 116.63774 38753 ft 543 kts 91°
2026-05-04 04:30 21.73516 116.67770 38936 ft 542 kts 91°
2026-05-04 04:30 21.73475 116.71825 39023 ft 543 kts 91°
2026-05-04 04:31 21.74167 116.79879 39036 ft 541 kts 74°
2026-05-04 04:31 21.76581 116.87508 39034 ft 539 kts 67°
2026-05-04 04:32 21.79319 116.95011 39038 ft 539 kts 66°
2026-05-04 04:32 21.82087 117.02510 39036 ft 539 kts 66°
2026-05-04 04:33 21.84822 117.10022 39036 ft 539 kts 67°
2026-05-04 04:33 21.87533 117.17540 39036 ft 539 kts 67°
2026-05-04 04:34 21.90239 117.25069 39033 ft 539 kts 67°
2026-05-04 04:34 21.92941 117.32595 39037 ft 539 kts 67°
2026-05-04 04:35 21.95639 117.40121 39037 ft 539 kts 67°
2026-05-04 04:35 21.98344 117.47643 39035 ft 538 kts 66°
2026-05-04 04:36 22.01844 117.54722 39039 ft 534 kts 57°
2026-05-04 04:36 22.05696 117.61571 39037 ft 534 kts 56°
2026-05-04 04:37 22.13489 117.75217 39042 ft 534 kts 56°
2026-05-04 04:38 22.17364 117.82054 39040 ft 534 kts 56°
2026-05-04 04:38 22.21232 117.88900 39041 ft 534 kts 56°
2026-05-04 04:39 22.25096 117.95747 39045 ft 534 kts 56°
2026-05-04 04:39 22.28930 118.02543 39041 ft 534 kts 56°
2026-05-04 04:40 22.32879 118.09333 39047 ft 534 kts 55°
2026-05-04 04:40 22.36861 118.16101 39032 ft 534 kts 55°
2026-05-04 04:41 22.40825 118.22880 39033 ft 534 kts 55°
2026-05-04 04:41 22.44719 118.29714 39035 ft 534 kts 56°
2026-05-04 04:42 22.48584 118.36577 39037 ft 534 kts 56°
2026-05-04 04:42 22.52449 118.43436 39038 ft 534 kts 56°
2026-05-04 04:43 22.56321 118.50298 39037 ft 534 kts 56°
2026-05-04 04:43 22.60206 118.57144 39035 ft 534 kts 56°
2026-05-04 04:44 22.64111 118.63984 39039 ft 534 kts 56°
2026-05-04 04:44 22.68010 118.70832 39034 ft 534 kts 56°
2026-05-04 04:45 22.71906 118.77690 39035 ft 534 kts 56°
2026-05-04 04:47 22.85514 119.01718 39031 ft 535 kts 56°
2026-05-04 04:47 22.89403 119.08606 39029 ft 535 kts 56°
2026-05-04 04:48 22.93283 119.15487 39026 ft 535 kts 56°
2026-05-04 04:49 23.02333 119.31572 39028 ft 536 kts 56°
2026-05-04 04:49 23.06210 119.38480 39023 ft 536 kts 56°
2026-05-04 04:50 23.10062 119.45352 38526 ft 529 kts 56°
2026-05-04 04:50 23.11971 119.48760 37869 ft 528 kts 56°
2026-05-04 04:50 23.13880 119.52172 37207 ft 527 kts 57°
2026-05-04 04:51 23.15829 119.55524 36263 ft 523 kts 52°
2026-05-04 04:51 23.18150 119.58543 35272 ft 519 kts 41°
2026-05-04 04:51 23.20916 119.61017 34452 ft 510 kts 30°
2026-05-04 04:51 23.23917 119.63020 33677 ft 503 kts 26°
2026-05-04 04:52 23.26936 119.64914 32852 ft 498 kts 26°
2026-05-04 04:52 23.29923 119.66783 32077 ft 493 kts 26°
2026-05-04 04:52 23.32880 119.68637 31325 ft 488 kts 26°
2026-05-04 04:52 23.35807 119.70478 30594 ft 483 kts 26°
2026-05-04 04:53 23.38702 119.72301 29852 ft 478 kts 26°
2026-05-04 04:53 23.41409 119.74006 29079 ft 474 kts 26°
2026-05-04 04:53 23.44248 119.75796 28269 ft 469 kts 26°
2026-05-04 04:53 23.47061 119.77571 27476 ft 465 kts 26°
2026-05-04 04:54 23.49843 119.79353 26698 ft 462 kts 27°
2026-05-04 04:54 23.52550 119.81215 25936 ft 459 kts 29°
2026-05-04 04:54 23.55224 119.83085 25206 ft 455 kts 29°
2026-05-04 04:54 23.57881 119.84933 24476 ft 451 kts 29°
2026-05-04 04:55 23.60521 119.86763 23766 ft 448 kts 29°
2026-05-04 04:55 23.63148 119.88579 22950 ft 446 kts 29°
2026-05-04 04:55 23.65766 119.90387 22456 ft 443 kts 29°
2026-05-04 04:55 23.68353 119.92175 22068 ft 438 kts 29°
2026-05-04 04:56 23.70919 119.93947 21628 ft 434 kts 29°
2026-05-04 04:56 23.73459 119.95701 21168 ft 431 kts 29°
2026-05-04 04:56 23.75991 119.97449 20711 ft 428 kts 29°
2026-05-04 04:56 23.78501 119.99184 20278 ft 426 kts 29°
2026-05-04 04:57 23.80993 120.00907 19863 ft 422 kts 29°
2026-05-04 04:57 23.83465 120.02616 19419 ft 420 kts 29°
2026-05-04 04:57 23.85892 120.04296 19006 ft 417 kts 29°
2026-05-04 04:57 23.88365 120.06007 18594 ft 414 kts 29°
2026-05-04 04:58 23.90787 120.07685 18172 ft 411 kts 29°
2026-05-04 04:58 23.93194 120.09352 17700 ft 408 kts 29°
2026-05-04 04:58 23.95553 120.10987 17265 ft 405 kts 29°
2026-05-04 04:58 23.97953 120.12652 16854 ft 402 kts 29°
2026-05-04 04:59 24.00269 120.14259 16413 ft 399 kts 29°
2026-05-04 04:59 24.02605 120.15879 15974 ft 396 kts 29°
2026-05-04 04:59 24.04923 120.17489 15552 ft 393 kts 29°
2026-05-04 04:59 24.07222 120.19086 15126 ft 390 kts 29°
2026-05-04 05:00 24.09502 120.20671 14706 ft 387 kts 29°
2026-05-04 05:00 24.11766 120.22246 14285 ft 385 kts 29°
2026-05-04 05:00 24.16249 120.25366 13413 ft 379 kts 29°
2026-05-04 05:01 24.18461 120.26906 12970 ft 375 kts 29°
2026-05-04 05:01 24.20654 120.28433 12530 ft 372 kts 29°
2026-05-04 05:01 24.22825 120.29945 12085 ft 369 kts 29°
2026-05-04 05:01 24.24982 120.31448 11642 ft 365 kts 29°
2026-05-04 05:02 24.27116 120.32936 11213 ft 363 kts 29°
2026-05-04 05:02 24.29221 120.34406 10992 ft 353 kts 29°
2026-05-04 05:02 24.31254 120.35827 10833 ft 341 kts 29°
2026-05-04 05:02 24.33221 120.37202 10679 ft 330 kts 29°
2026-05-04 05:03 24.35132 120.38537 10469 ft 322 kts 29°
2026-05-04 05:03 24.37011 120.39849 10148 ft 319 kts 29°
2026-05-04 05:04 24.42585 120.43742 9967 ft 317 kts 29°
2026-05-04 05:04 24.44443 120.45041 9968 ft 316 kts 29°
2026-05-04 05:04 24.46297 120.46338 9966 ft 317 kts 29°
2026-05-04 05:06 24.59292 120.55446 9973 ft 317 kts 29°
2026-05-04 05:06 24.61150 120.56750 9982 ft 317 kts 29°
2026-05-04 05:06 24.63008 120.58055 9983 ft 317 kts 29°
2026-05-04 05:07 24.64870 120.59363 9985 ft 317 kts 29°
2026-05-04 05:07 24.66727 120.60676 9986 ft 318 kts 30°
2026-05-04 05:07 24.68367 120.62061 9975 ft 320 kts 38°
2026-05-04 05:09 24.81379 120.74867 7065 ft 308 kts 41°
2026-05-04 05:09 24.82974 120.76437 6692 ft 308 kts 41°
2026-05-04 05:10 24.84567 120.78006 6335 ft 306 kts 41°
2026-05-04 05:10 24.86146 120.79565 5972 ft 305 kts 41°
2026-05-04 05:10 24.87725 120.81122 5599 ft 304 kts 41°
2026-05-04 05:10 24.89304 120.82679 5213 ft 304 kts 41°
2026-05-04 05:11 24.90824 120.84284 4846 ft 302 kts 50°
2026-05-04 05:11 24.91754 120.86307 4455 ft 294 kts 82°
2026-05-04 05:11 24.91839 120.88514 4126 ft 286 kts 98°
2026-05-04 05:11 24.91709 120.90637 4009 ft 285 kts 98°
2026-05-04 05:12 24.91573 120.92806 3994 ft 278 kts 98°
2026-05-04 05:12 24.91459 120.94869 4002 ft 262 kts 98°
2026-05-04 05:12 24.91359 120.96807 4006 ft 245 kts 99°
2026-05-04 05:12 24.91260 120.98626 4012 ft 232 kts 99°
2026-05-04 05:13 24.91163 121.00384 4012 ft 230 kts 99°
2026-05-04 05:13 24.91092 121.02143 3992 ft 232 kts 93°
2026-05-04 05:13 24.91546 121.03823 4015 ft 225 kts 62°
2026-05-04 05:13 24.92494 121.05134 4042 ft 218 kts 46°
2026-05-04 05:14 24.93537 121.06364 3959 ft 223 kts 49°
2026-05-04 05:14 24.94550 121.07649 3694 ft 220 kts 51°
2026-05-04 05:14 24.95527 121.08911 3394 ft 213 kts 50°
2026-05-04 05:14 24.96482 121.10127 3102 ft 208 kts 49°
2026-05-04 05:15 24.97436 121.11336 2809 ft 210 kts 49°
2026-05-04 05:15 24.98386 121.12549 2547 ft 209 kts 48°
2026-05-04 05:15 24.99329 121.13752 2272 ft 206 kts 47°
2026-05-04 05:15 25.00248 121.14920 2007 ft 197 kts 47°
2026-05-04 05:16 25.01124 121.16036 1762 ft 187 kts 47°
2026-05-04 05:16 25.01955 121.17096 1505 ft 177 kts 47°
2026-05-04 05:16 25.02744 121.18095 1242 ft 169 kts 48°
2026-05-04 05:16 25.03484 121.19040 984 ft 157 kts 50°
2026-05-04 05:17 25.04174 121.19921 748 ft 146 kts 50°
2026-05-04 05:17 25.04807 121.20726 560 ft 133 kts 50°
2026-05-04 05:17 25.05388 121.21470 383 ft 125 kts 49°
2026-05-04 05:17 25.05947 121.22182 232 ft 121 kts 47°
2026-05-04 05:18 25.06480 121.22860 106 ft 114 kts 48°
2026-05-04 05:18 25.06930 121.23422 104 ft 60 kts 49°
2026-05-04 05:18 25.07041 121.23562 102 ft 17 kts 49°
2026-05-04 05:18 25.07140 121.23661 103 ft 22 kts 27°
2026-05-04 05:19 25.07276 121.23729 103 ft 20 kts 20°
2026-05-04 05:19 25.07404 121.23775 106 ft 19 kts 17°
2026-05-04 05:19 25.07512 121.23778 106 ft 13 kts 326°
2026-05-04 05:19 25.07586 121.23703 107 ft 16 kts 317°
2026-05-04 05:20 25.07657 121.23707 107 ft 10 kts 47°
2026-05-04 05:20 25.07705 121.23769 107 ft 11 kts 49°
2026-05-04 05:20 25.07758 121.23836 106 ft 12 kts 50°
2026-05-04 05:20 25.07780 121.23863 107 ft 1 kts 42°
2026-05-04 05:21 25.07796 121.23869 107 ft 5 kts 12°
2026-05-04 05:21 25.07822 121.23854 107 ft 2 kts 294°
2026-05-04 05:21 25.07828 121.23832 107 ft 4 kts 297°
2026-05-04 05:21 25.07855 121.23805 107 ft 7 kts 320°
2026-05-04 05:22 25.07879 121.23783 107 ft 0 kts 320°
2026-05-04 05:22 25.07883 121.23779 106 ft 3 kts 319°
2026-05-04 05:22 25.07885 121.23778 106 ft 0 kts 319°